Location: Newark
(48.8604°N, 2.3376°E)
Time: 23:05:30
(UTC+00:00)

XW-2C - Pass Details

Date: 16 December 2021
Orbit: 503 x 524 km, 97.5° (Epoch: 19 January)

Event Time Altitude Azimuth Distance (km) Brightness Sun altitude
Rises 17:39:18 0° 193° (SSW) 2,632 ? -16.2°
Reaches altitude 10° 17:41:37 10° 206° (SSW) 1,753 ? -16.6°
Maximum altitude 17:44:51 27° 265° (W) 1,041 ? -17.1°
Drops below altitude 10° 17:48:08 10° 324° (NW) 1,774 ? -17.6°
Sets 17:50:31 0° 337° (NNW) 2,671 ? -18.0°
